Location: Austin
(30.3000°N, 97.7500°W)
Time: 20:51:05
(UTC-05:00)

Cosmos 1302 Rocket - Pass Details

Date: 10 January 2026
Orbit: 752 x 771 km, 74.0° (Epoch: 19 May)

Event Time Altitude Azimuth Distance (km) Brightness Sun altitude
Rises 19:08:38 0° 178° (S) 3,208 7.4 -17.0°
Reaches altitude 10° 19:11:06 10° 171° (S) 2,289 6.5 -17.5°
Maximum altitude 19:15:58 42° 101° (ESE) 1,081 4.3 -18.5°
Enters shadow 19:17:24 34° 63° (ENE) 1,235 4.5 -18.8°
